Location: Beugnon
(47.6222°N, 3.7850°E)
Time: 01:27:28
(UTC+00:00)

MOS 1 Rocket - Pass Details

Date: 09 April 2020
Orbit: 614 x 830 km, 97.4° (Epoch: 30 May)

Event Time Altitude Azimuth Distance (km) Brightness Sun altitude
Rises 19:15:15 0° 20° (NNE) 3,352 6.9 -8.6°
Reaches altitude 10° 19:17:49 10° 30° (NNE) 2,431 6.0 -9.0°
Maximum altitude 19:22:43 34° 94° (E) 1,348 4.3 -9.8°
Drops below altitude 10° 19:27:37 10° 158° (SSE) 2,426 5.7 -10.6°
Sets 19:30:10 0° 168° (SSE) 3,344 6.5 -10.9°
